Location: Petruro
(41.0333°N, 14.7833°E)
Time: 18:15:44
(UTC+00:00)

Cosmos 1242 Rocket - Pass Details

Date: 26 October 2021
Orbit: 444 x 482 km, 81.2° (Epoch: 05 December)

Event Time Altitude Azimuth Distance (km) Brightness Sun altitude
Rises 04:51:22 0° 10° (N) 2,555 6.2 -7.0°
Reaches altitude 10° 04:54:24 10° 38° (NE) 1,666 5.7 -6.4°
Maximum altitude 04:56:18 14° 69° (ENE) 1,449 6.0 -6.1°
Drops below altitude 10° 04:58:11 10° 101° (E) 1,653 7.2 -5.7°
Sets 05:01:09 0° 129° (SE) 2,518 7.5 -5.2°
